Location: Poughquag
(41.6090°N, 73.6820°W)
Time: 12:35:49
(UTC-04:00)

Vanguard 1 - Pass Details

Date: 29 May 2020
Orbit: 650 x 3833 km, 34.2° (Epoch: 07 July)

Event Time Altitude Azimuth Distance (km) Brightness Sun altitude
Rises 07:25:07 0° 242° (WSW) 6,407 13.7 20.2°
Reaches altitude 10° 07:28:48 10° 239° (WSW) 5,727 13.5 20.9°
Maximum altitude 07:48:05 65° 163° (SSE) 3,986 13.6 24.4°
Drops below altitude 10° 08:10:50 10° 89° (E) 6,606 16.0 28.6°
Sets 08:15:28 0° 87° (E) 7,387 15.8 29.5°
